This is the latest recevied weather packets stored in our database for station/object WP4PW. If no packets are shown the sender has not sent any weather packets the latest 1 day(s).
| Time | Temp. | Humidity | Pressure | Rain* | Wind** | Luminosity | Snow |
|---|---|---|---|---|---|---|---|
| 1778023147 | 27.78° C | 83% | 1021.5 hPa | 0 mm | 0.89 m/s, 153° | 0 W/m² | - |
| 1778022845 | 27.78° C | 83% | 1021.3 hPa | 0 mm | 0.45 m/s, 163° | 0 W/m² | - |
| 1778022543 | 27.78° C | 83% | 1021.3 hPa | 0 mm | 0.45 m/s, 140° | 0 W/m² | - |
| 1778022240 | 28.33° C | 83% | 1021.3 hPa | 0 mm | 0.45 m/s, 149° | 0 W/m² | - |
| 1778021936 | 27.78° C | 82% | 1021.3 hPa | 0 mm | 0.45 m/s, 143° | 0 W/m² | - |
| 1778021634 | 28.33° C | 82% | 1021.3 hPa | 0 mm | 1.34 m/s, 162° | 1 W/m² | - |
| 1778021329 | 28.33° C | 81% | 1021.3 hPa | 0 mm | 0.89 m/s, 113° | 2 W/m² | - |
| 1778021027 | 28.33° C | 81% | 1021.3 hPa | 0 mm | 0 m/s | 4 W/m² | - |
| 1778020723 | 28.33° C | 81% | 1021.3 hPa | 0 mm | 0.45 m/s, 123° | 7 W/m² | - |
| 1778020420 | 28.33° C | 81% | 1021 hPa | 0 mm | 0.89 m/s, 93° | 10 W/m² | - |
| 1778020116 | 28.33° C | 80% | 1020.8 hPa | 0 mm | 0.45 m/s, 164° | 14 W/m² | - |
| 1778019812 | 28.33° C | 80% | 1020.9 hPa | 0 mm | 1.79 m/s, 111° | 19 W/m² | - |
| 1778019510 | 28.89° C | 80% | 1020.9 hPa | 0 mm | 0.89 m/s, 126° | 25 W/m² | - |
| 1778019206 | 28.89° C | 79% | 1020.6 hPa | 0 mm | 1.34 m/s, 165° | 44 W/m² | - |
| 1778018903 | 28.89° C | 78% | 1020.8 hPa | 0 mm | 1.34 m/s, 143° | 48 W/m² | - |
| 1778018600 | 28.89° C | 78% | 1020.8 hPa | 0 mm | 2.68 m/s, 124° | 48 W/m² | - |
| 1778018298 | 28.89° C | 77% | 1020.7 hPa | 0 mm | 0.89 m/s, 115° | 40 W/m² | - |
| 1778017996 | 28.89° C | 77% | 1020.5 hPa | 0 mm | 1.79 m/s, 145° | 44 W/m² | - |
| 1778017694 | 29.44° C | 77% | 1020.5 hPa | 0 mm | 1.79 m/s, 168° | 55 W/m² | - |
| 1778017391 | 29.44° C | 77% | 1020.5 hPa | 0 mm | 2.68 m/s, 151° | 113 W/m² | - |
| 1778017088 | 28.89° C | 77% | 1020.4 hPa | 0 mm | 2.24 m/s, 161° | 68 W/m² | - |
| 1778016786 | 28.89° C | 78% | 1020.4 hPa | 0 mm | 3.13 m/s, 124° | 70 W/m² | - |
| 1778016481 | 29.44° C | 78% | 1020.2 hPa | 0 mm | 1.34 m/s, 68° | 96 W/m² | - |
| 1778016179 | 29.44° C | 78% | 1020.2 hPa | 0 mm | 1.79 m/s, 147° | 96 W/m² | - |
| 1778015875 | 30° C | 79% | 1020.3 hPa | 0 mm | 0.89 m/s, 201° | 211 W/m² | - |
* Rain latest hour (hover to see other rain measurements)
** Current wind speed in m/s (hover to see current wind gust speed)